When you browse on this site, cookies collect data to enhance your experience and personalize the content and advertising you see.
Visit our Privacy Policy to learn more. By continuing to use the site, you agree to this use of cookies and data.
  • en Suisse
  • Liste des pays
  • À 7 jours
  • Température de l'eau
  • Carte satellitaire
  • Carte météo
  • Widgets météo
  • user-avatar
    Se connecter

    Météo par heure à Tovchenykove

    Ce jour, 19 Février, Mardi

    Heure Température Précipitation Vent Pression Humidité
    00:00 -6°C° 0 mm 1 m/s 751 mmHg 93%
    01:00 -7°C° 0 mm 1 m/s 751 mmHg 93%
    02:00 -8°C° 0 mm 0 m/s 751 mmHg 92%
    03:00 -8°C° 0 mm 1 m/s 751 mmHg 92%
    04:00 -8°C° 0 mm 1 m/s 751 mmHg 91%
    05:00 -8°C° 0 mm 1 m/s 751 mmHg 91%
    06:00 -8°C° 0 mm 1 m/s 751 mmHg 91%
    07:00 -7°C° 0 mm 1 m/s 751 mmHg 91%
    08:00 -8°C° 0 mm 2 m/s 751 mmHg 91%
    09:00 -7°C° 0 mm 2 m/s 751 mmHg 90%
    10:00 -5°C° 0 mm 2 m/s 751 mmHg 90%
    11:00 -5°C° 0 mm 3 m/s 751 mmHg 89%
    12:00 -4°C° 0 mm 3 m/s 751 mmHg 89%
    13:00 -3°C° 0 mm 4 m/s 750 mmHg 88%
    14:00 -3°C° 0 mm 4 m/s 750 mmHg 88%
    15:00 -4°C° 0 mm 4 m/s 750 mmHg 89%
    16:00 -4°C° 0 mm 4 m/s 749 mmHg 89%
    17:00 -5°C° 0 mm 4 m/s 749 mmHg 90%
    18:00 -7°C° 0 mm 4 m/s 748 mmHg 90%
    19:00 -7°C° 0 mm 4 m/s 748 mmHg 89%
    20:00 -7°C° 0 mm 5 m/s 747 mmHg 89%
    21:00 -7°C° 0 mm 5 m/s 747 mmHg 88%
    22:00 -7°C° 0 mm 5 m/s 746 mmHg 87%
    23:00 -7°C° 0 mm 5 m/s 746 mmHg 86%

    Demain, 20 Février, Mercredi

    Heure Température Précipitation Vent Pression Humidité
    00:00 -6°C° 0 mm 6 m/s 745 mmHg 85%
    01:00 -6°C° 0 mm 6 m/s 745 mmHg 84%
    02:00 -6°C° 0 mm 6 m/s 744 mmHg 83%
    03:00 -6°C° 0 mm 6 m/s 744 mmHg 84%
    04:00 -6°C° 0 mm 6 m/s 743 mmHg 86%
    05:00 -6°C° 0 mm 6 m/s 742 mmHg 87%
    06:00 -5°C° 0 mm 6 m/s 742 mmHg 89%
    07:00 -5°C° 0 mm 6 m/s 742 mmHg 92%
    08:00 -4°C° 0 mm 7 m/s 741 mmHg 94%
    09:00 -4°C° 0 mm 6 m/s 741 mmHg 95%
    10:00 -3°C° 0 mm 6 m/s 741 mmHg 96%
    11:00 -2°C° 0 mm 6 m/s 741 mmHg 97%
    12:00 -1°C° 0.1 mm 5 m/s 741 mmHg 98%
    13:00 -1°C° 0.1 mm 5 m/s 740 mmHg 99%
    14:00 -1°C° 0.1 mm 5 m/s 740 mmHg 99%
    15:00 -1°C° 0.5 mm 4 m/s 740 mmHg 99%
    16:00 -1°C° 0.5 mm 4 m/s 740 mmHg 98%
    17:00 -1°C° 0.5 mm 4 m/s 740 mmHg 97%
    18:00 -1°C° 0 mm 4 m/s 740 mmHg 97%
    19:00 -1°C° 0 mm 4 m/s 740 mmHg 98%
    20:00 -1°C° 0 mm 4 m/s 740 mmHg 98%
    21:00 -2°C° 0.1 mm 4 m/s 740 mmHg 96%
    22:00 -2°C° 0.1 mm 4 m/s 740 mmHg 94%
    23:00 -2°C° 0.1 mm 4 m/s 739 mmHg 93%

    Après-demain, 21 Février, Jeudi

    Heure Température Précipitation Vent Pression Humidité
    00:00 -2°C° 0.1 mm 5 m/s 739 mmHg 93%
    01:00 -2°C° 0.1 mm 6 m/s 739 mmHg 92%
    02:00 -2°C° 0.1 mm 6 m/s 738 mmHg 92%
    03:00 -2°C° 0.2 mm 6 m/s 738 mmHg 89%
    04:00 -3°C° 0.2 mm 7 m/s 738 mmHg 87%
    05:00 -3°C° 0.2 mm 7 m/s 738 mmHg 84%
    06:00 -4°C° 0 mm 6 m/s 739 mmHg 84%
    07:00 -5°C° 0 mm 6 m/s 739 mmHg 84%
    08:00 -6°C° 0 mm 6 m/s 739 mmHg 83%
    09:00 -6°C° 0 mm 6 m/s 740 mmHg 82%
    10:00 -6°C° 0 mm 7 m/s 740 mmHg 80%
    11:00 -6°C° 0 mm 7 m/s 740 mmHg 79%
    12:00 -6°C° 0.1 mm 7 m/s 740 mmHg 78%
    13:00 -6°C° 0.1 mm 7 m/s 740 mmHg 78%
    14:00 -6°C° 0.1 mm 7 m/s 740 mmHg 78%
    15:00 -6°C° 0.1 mm 7 m/s 740 mmHg 79%
    16:00 -5°C° 0.1 mm 6 m/s 741 mmHg 80%
    17:00 -6°C° 0.1 mm 6 m/s 741 mmHg 80%
    18:00 -6°C° 0.1 mm 6 m/s 741 mmHg 80%
    19:00 -7°C° 0.1 mm 5 m/s 742 mmHg 81%
    20:00 -8°C° 0.1 mm 5 m/s 742 mmHg 81%
    21:00 -8°C° 0 mm 5 m/s 742 mmHg 82%
    22:00 -10°C° 0 mm 5 m/s 742 mmHg 83%
    23:00 -9°C° 0 mm 4 m/s 742 mmHg 84%

    22 Février, Vendredi

    Heure Température Précipitation Vent Pression Humidité
    00:00 -9°C° 0 mm 4 m/s 743 mmHg 85%
    01:00 -9°C° 0 mm 4 m/s 743 mmHg 87%
    02:00 -9°C° 0 mm 4 m/s 743 mmHg 88%
    03:00 -9°C° 0 mm 4 m/s 743 mmHg 88%
    04:00 -9°C° 0 mm 4 m/s 743 mmHg 89%
    05:00 -9°C° 0 mm 4 m/s 743 mmHg 89%
    06:00 -10°C° 0 mm 5 m/s 744 mmHg 87%
    07:00 -10°C° 0 mm 5 m/s 745 mmHg 85%
    08:00 -10°C° 0 mm 6 m/s 745 mmHg 83%
    09:00 -11°C° 0 mm 6 m/s 746 mmHg 81%
    10:00 -11°C° 0 mm 6 m/s 746 mmHg 79%
    11:00 -12°C° 0 mm 7 m/s 747 mmHg 77%
    12:00 -12°C° 0 mm 7 m/s 747 mmHg 76%
    13:00 -13°C° 0 mm 7 m/s 748 mmHg 76%
    14:00 -13°C° 0 mm 7 m/s 748 mmHg 75%
    15:00 -12°C° 0 mm 6 m/s 749 mmHg 76%
    16:00 -12°C° 0 mm 6 m/s 750 mmHg 77%
    17:00 -13°C° 0 mm 5 m/s 750 mmHg 78%
    18:00 -12°C° 0 mm 4 m/s 751 mmHg 80%
    19:00 -12°C° 0 mm 4 m/s 751 mmHg 81%
    20:00 -13°C° 0 mm 3 m/s 751 mmHg 82%
    21:00 -12°C° 0 mm 4 m/s 752 mmHg 83%
    22:00 -12°C° 0 mm 4 m/s 752 mmHg 84%
    23:00 -12°C° 0 mm 4 m/s 752 mmHg 85%

    23 Février, Samedi

    Heure Température Précipitation Vent Pression Humidité
    00:00 -12°C° 0 mm 4 m/s 752 mmHg 86%
    01:00 -12°C° 0 mm 4 m/s 752 mmHg 87%
    02:00 -14°C° 0 mm 4 m/s 753 mmHg 88%
    03:00 -14°C° 0 mm 4 m/s 753 mmHg 87%
    04:00 -14°C° 0 mm 4 m/s 753 mmHg 87%
    05:00 -15°C° 0 mm 4 m/s 753 mmHg 86%
    06:00 -15°C° 0 mm 4 m/s 754 mmHg 86%
    07:00 -15°C° 0 mm 4 m/s 754 mmHg 86%
    08:00 -15°C° 0 mm 4 m/s 754 mmHg 86%
    09:00 -15°C° 0 mm 4 m/s 755 mmHg 83%
    10:00 -14°C° 0 mm 4 m/s 755 mmHg 81%
    11:00 -12°C° 0 mm 4 m/s 755 mmHg 78%
    12:00 -12°C° 0 mm 4 m/s 755 mmHg 77%
    13:00 -12°C° 0 mm 4 m/s 755 mmHg 77%
    14:00 -11°C° 0 mm 4 m/s 755 mmHg 77%
    15:00 -11°C° 0 mm 4 m/s 755 mmHg 79%
    16:00 -12°C° 0 mm 3 m/s 755 mmHg 81%
    17:00 -12°C° 0 mm 3 m/s 755 mmHg 83%
    18:00 -12°C° 0 mm 3 m/s 755 mmHg 85%
    19:00 -12°C° 0 mm 3 m/s 755 mmHg 87%
    20:00 -10°C° 0 mm 2 m/s 755 mmHg 89%
    21:00 -12°C° 0 mm 2 m/s 755 mmHg 89%
    22:00 -13°C° 0 mm 2 m/s 755 mmHg 90%
    23:00 -14°C° 0 mm 3 m/s 756 mmHg 91%

    24 Février, Dimanche

    Heure Température Précipitation Vent Pression Humidité
    00:00 -14°C° 0 mm 3 m/s 756 mmHg 91%
    01:00 -15°C° 0 mm 3 m/s 756 mmHg 92%
    02:00 -15°C° 0 mm 3 m/s 756 mmHg 92%
    03:00 -15°C° 0 mm 3 m/s 756 mmHg 93%
    04:00 -15°C° 0 mm 3 m/s 756 mmHg 93%
    05:00 -15°C° 0 mm 3 m/s 756 mmHg 93%
    06:00 -15°C° 0 mm 3 m/s 757 mmHg 92%
    07:00 -15°C° 0 mm 3 m/s 757 mmHg 92%
    08:00 -16°C° 0 mm 4 m/s 757 mmHg 91%
    09:00 -15°C° 0 mm 4 m/s 758 mmHg 89%
    10:00 -14°C° 0 mm 4 m/s 758 mmHg 88%
    11:00 -14°C° 0 mm 4 m/s 758 mmHg 86%
    12:00 -12°C° 0 mm 4 m/s 758 mmHg 86%
    13:00 -12°C° 0 mm 4 m/s 758 mmHg 86%
    14:00 -11°C° 0 mm 4 m/s 757 mmHg 85%
    15:00 -12°C° 0 mm 4 m/s 757 mmHg 86%
    16:00 -12°C° 0 mm 4 m/s 757 mmHg 87%
    17:00 -12°C° 0 mm 4 m/s 757 mmHg 88%
    18:00 -13°C° 0 mm 3 m/s 757 mmHg 89%
    19:00 -13°C° 0 mm 3 m/s 757 mmHg 90%
    20:00 -14°C° 0 mm 3 m/s 757 mmHg 91%
    21:00 -13°C° 0 mm 2 m/s 756 mmHg 92%
    22:00 -14°C° 0 mm 2 m/s 756 mmHg 93%
    23:00 -12°C° 0 mm 1 m/s 755 mmHg 95%
    Voir plus